This demonstration page uses our WeatherBlox Daily Observations layout. Learn more.

Left ArrowRight Arrow

53.62937, 11.41316

Hourly Observations for August 3, 2021

Temp ( °F °C ) Dew Point ( °F °C ) Humidity (%) Winds ( mph kmh ) Pressure ( in mb ) Visibility ( mi km ) Precip ( " mm )
5:50 am 05:50 Mostly Sunny 55 13 55 13 100 100 VRB 1 2 29.91 1013 7 11 N/A
6:20 am 06:20 Mostly Sunny 55 13 55 13 100 100 SW 1 2 29.91 1013 7 11 N/A
6:50 am 06:50 Mostly Sunny 57 14 55 13 94 94 WSW 3 6 29.94 1014 30 48 N/A
7:20 am 07:20 Partly Cloudy 57 14 55 13 94 94 SSW 7 11 29.91 1013 30 48 N/A
7:50 am 07:50 Partly Cloudy 59 15 55 13 88 88 SW 5 7 29.94 1014 30 48 N/A
8:20 am 08:20 Mostly Sunny 59 15 54 12 82 82 SW 7 11 29.94 1014 30 48 N/A
8:50 am 08:50 Mostly Sunny 61 16 54 12 77 77 S 6 9 29.94 1014 30 48 N/A
9:20 am 09:20 Mostly Sunny 61 16 54 12 77 77 SW 6 9 29.94 1014 30 48 N/A
9:50 am 09:50 Partly Cloudy 63 17 52 11 68 68 SSW 3 6 29.94 1014 30 48 N/A
10:20 am 10:20 Partly Cloudy 64 18 52 11 64 64 SSW 6 9 29.94 1014 30 48 N/A
10:50 am 10:50 Partly Cloudy 64 18 52 11 64 64 VRB 3 6 29.94 1014 30 48 N/A
11:20 am 11:20 Partly Cloudy 63 17 52 11 68 68 WSW 3 6 29.94 1014 30 48 N/A
11:50 am 11:50 Partly Cloudy 64 18 52 11 64 64 VRB 2 4 29.94 1014 30 48 N/A
12:20 pm 12:20 Partly Cloudy 64 18 50 10 60 60 VRB 2 4 29.94 1014 30 48 N/A
12:50 pm 12:50 Mostly Cloudy 63 17 52 11 68 68 S 6 9 29.94 1014 30 48 N/A
1:20 pm 13:20 Mostly Sunny 64 18 54 12 68 68 S 7 11 29.91 1013 30 48 N/A
1:50 pm 13:50 Mostly Sunny 64 18 54 12 68 68 SSE 6 9 29.91 1013 30 48 N/A
2:20 pm 14:20 Mostly Sunny 64 18 52 11 64 64 S 5 7 29.91 1013 30 48 N/A
2:50 pm 14:50 Mostly Sunny 66 19 52 11 60 60 SSE 3 6 29.91 1013 30 48 N/A
3:20 pm 15:20 Partly Cloudy with Showers Nearby 68 20 52 11 56 56 VRB 3 6 29.91 1013 30 48 N/A
3:50 pm 15:50 Mostly Sunny 68 20 50 10 53 53 VRB 5 7 29.91 1013 30 48 N/A
4:20 pm 16:20 Mostly Sunny 68 20 48 9 49 49 VRB 3 6 29.91 1013 30 48 N/A
4:50 pm 16:50 Partly Cloudy 66 19 52 11 60 60 VRB 5 7 29.91 1013 30 48 N/A
5:20 pm 17:20 Partly Cloudy 68 20 52 11 56 56 VRB 3 6 29.91 1013 30 48 N/A
5:50 pm 17:50 Partly Cloudy 68 20 52 11 56 56 W 3 6 29.88 1012 30 48 N/A
6:20 pm 18:20 Mostly Sunny 70 21 52 11 53 53 VRB 2 4 29.91 1013 30 48 N/A
6:50 pm 18:50 Mostly Sunny 68 20 50 10 53 53 VRB 2 4 29.88 1012 30 48 N/A
7:20 pm 19:20 Mostly Sunny 66 19 50 10 56 56 VRB 2 4 29.91 1013 30 48 N/A
7:50 pm 19:50 Mostly Sunny 66 19 52 11 60 60 VRB 1 2 29.91 1013 30 48 N/A
8:20 pm 20:20 Mostly Sunny 66 19 52 11 60 60 VRB 2 4 29.91 1013 7 11 N/A
8:50 pm 20:50 Mostly Sunny 63 17 52 11 68 68 VRB 2 4 29.91 1013 7 11 N/A
9:20 pm 21:20 Mostly Clear 61 16 52 11 72 72 VRB 2 4 29.91 1013 7 11 N/A
9:50 pm 21:50 Mostly Clear 61 16 54 12 77 77 VRB 1 2 29.91 1013 7 11 N/A

Powered by AerisWeather